Location: Fredericksburg
(30.2750°N, 98.8720°W)
Time: 14:18:07
(UTC-06:00)

Daily predictions for brighter satellites

Satellite Brightness Start Highest point End
(mag) Time Altitude Azimuth Time Altitude Azimuth Time Altitude Azimuth
H-2A ROCKET BODY 4.0 17:59:36 10° WSW 18:05:11 68° SSE 18:37:29 10° E
SL-8 Rocket 4.0 18:17:15 10° N 18:23:26 69° E 18:29:38 10° SSE
SMAP 3.5 18:21:26 10° S 18:26:03 71° WSW 18:30:42 10° NNW
Meteor 2-8 Rocket 4.5 18:20:23 10° S 18:26:29 76° E 18:32:38 10° N
EO 1 Del DPAF 4.0 18:24:34 10° NNE 18:28:03 33° E 18:31:30 10° SSE
CORIOLIS 4.3 18:23:44 10° SSE 18:29:04 86° WSW 18:34:26 10° NNW
Landsat 4 3.8 18:26:34 10° NNE 18:30:11 51° E 18:33:48 10° S
IRS-1A Rocket 4.3 18:26:26 10° SSE 18:31:52 64° ENE 18:37:24 10° N
Cosmos 2218 Rocket 4.0 18:26:29 10° N 18:32:36 67° E 18:38:41 10° SSE
Cosmos 1743 Rocket 4.3 18:30:06 10° SSE 18:33:56 30° E 18:37:45 10° NNE
ERS-2 3.7 18:32:44 10° ESE 18:35:06 16° ENE 18:37:28 10° NNE
Ariane Rocket 3.5 18:30:37 10° S 18:35:37 66° WSW 18:40:40 10° NNW
Cosmos 1656 Rocket 3.9 18:31:24 10° N 18:36:41 45° ENE 18:41:58 10° SE
Cosmos 2228 Rocket 4.2 18:37:18 10° NNE 18:41:00 24° ENE 18:44:40 10° SE
Cosmos 1703 3.5 18:37:36 10° SSE 18:41:25 48° E 18:45:15 10° NNE
SL-24 R/B - RUBIN 2 3.9 18:38:07 10° NNW 18:42:16 40° ENE 18:46:19 10° SE
Cosmos 1328 Rocket 4.2 18:38:46 10° NNE 18:42:39 32° E 18:46:30 10° SE
Cosmos 1300 3.3 18:39:24 10° NNW 18:43:10 61° W 18:46:55 10° S
Cosmos 2369 Rocket 4.2 18:39:39 10° NW 18:44:41 33° WSW 18:49:43 10° SSW
MOS 1 4.3 18:41:31 10° SSE 18:47:00 57° ENE 18:52:31 10° N
Cosmos 1943 Rocket 3.2 18:42:42 10° NNW 18:48:03 50° WSW 18:53:20 10° S
Cosmos 1766 Rocket 4.5 18:48:52 10° SSW 18:53:03 51° W 18:57:16 10° N
SL-08 R/B 4.4 18:47:22 10° N 18:53:32 82° E 18:59:38 10° S
Meteor 2-2 Rocket 4.2 18:50:01 10° N 18:55:43 82° E 19:01:20 10° S
FENGYUN 3A 3.6 18:56:58 10° SSE 19:02:18 78° ENE 19:07:40 10° N
SPOT 3 Rocket 3.5 18:59:41 10° SSE 19:04:45 64° ENE 19:09:51 10° N
ASTRO E2 2.7 19:01:11 10° W 19:05:10 74° N 19:07:29 24° E
Cosmos 1777 Rocket 3.9 19:01:22 10° NNW 19:06:38 80° ENE 19:11:52 10° SSE
Cosmos 2366 rocket 4.4 19:00:30 10° NNW 19:06:39 68° W 19:12:44 10° S
Cosmos 2058 2.9 19:05:43 10° S 19:09:52 89° WSW 19:14:04 10° N
YAOGAN 1 4.0 19:07:29 10° S 19:11:33 41° W 19:15:39 10° NNW
Cosmos 1821 Rocket 4.4 19:06:33 10° NNE 19:12:16 39° E 19:18:02 10° SSE
ALOS 2.5 19:08:57 10° S 19:13:35 71° W 19:18:14 10° NNW
Cosmos 1151 Rocket 3.2 19:10:07 10° N 19:14:21 47° E 19:18:32 10° SSE
Cosmos 332 Rocket 4.2 19:11:19 10° SSW 19:16:09 66° WNW 19:21:02 10° N
USA 81 3.9 19:11:33 10° S 19:16:47 74° E 19:22:03 10° N
Nadezhda 3 Rocket 4.0 19:12:51 10° S 19:19:10 88° W 19:25:33 10° N
Cosmos 2082 Rocket 3.3 19:15:25 10° SSE 19:19:36 22° ESE 19:19:36 22° ESE
Cosmos 2208 Rocket 3.9 19:18:05 10° SSW 19:23:19 82° ESE 19:28:40 10° NNE
CZ-4 R/B 4.5 19:21:04 10° SW 19:24:01 19° W 19:27:01 10° NW
H-2A R/B 2.5 19:24:45 10° SSE 19:28:30 74° ENE 19:32:20 10° N
Lacrosse 5 1.8 19:24:03 10° SSW 19:29:07 75° SE 19:31:29 32° NE
Cosmos 468 Rocket 3.9 19:25:34 10° S 19:30:36 60° ESE 19:33:21 26° NNE
Cosmos 2151 4.1 19:30:52 10° SSW 19:34:56 45° W 19:39:02 10° N
Cosmos 1814 Rocket 4.4 19:30:09 10° SSE 19:35:04 39° E 19:35:29 38° E
Cosmos 1346 Rocket 4.2 19:32:11 10° NNW 19:35:48 39° W 19:39:25 10° SSW
Cosmos 1455 2.7 19:36:51 10° NNW 19:40:38 59° W 19:44:20 10° S
CZ-4C R/B 1.8 19:36:12 10° SSW 19:41:07 73° ESE 19:43:03 40° NE
Hubble Space Telescope 1.7 19:40:00 10° SW 19:43:46 35° SSE 19:43:55 35° SSE
Cosmos 1833 Rocket 3.1 19:39:07 10° S 19:44:07 40° ESE 19:44:07 40° ESE
Cosmos 1763 Rocket 3.7 19:40:30 10° S 19:45:02 45° ESE 19:45:02 45° ESE
Centaur AC-64 3.6 19:45:12 10° SW 19:47:44 32° SSE 19:48:14 31° SSE
Cosmos 1934 Rocket 4.0 19:42:03 10° N 19:48:20 58° E 19:54:33 10° SSE
OAO 3 Rocket 3.0 19:43:59 10° WNW 19:48:41 89° NNE 19:49:19 67° ESE
Cosmos 1515 Rocket 4.3 19:45:58 10° NNW 19:50:10 51° W 19:54:21 10° SSW
FengYun 1-2 T 4.3 19:44:52 10° S 19:50:30 81° WSW 19:56:08 10° NNW
NOSS 3-4 (A) 4.3 19:44:18 10° NW 19:51:29 65° WSW 19:59:07 10° SSE
NOSS 3-4 (C) 4.3 19:44:24 10° NW 19:51:36 66° WSW 19:59:15 10° SSE
ISS -2.5 19:51:13 10° SW 19:53:29 40° WSW 19:53:29 40° WSW
SEDSat Delta rocket 3.8 19:49:05 10° W 19:55:49 80° N 19:57:13 56° ENE
SL-27 R/B 4.3 20:06:10 10° SW 20:08:51 29° W 20:08:51 29° W
Atlas Centaur 2 4.1 20:12:37 10° SSW 20:16:54 20° SSE 20:16:54 20° SSE
Centaur D-1A AC-32 3.5 20:22:31 10° SW 20:25:56 47° S 20:25:56 47° S
Delta 168 4.3 20:21:59 10° W 20:28:14 50° SSW 20:28:14 50° SSW
Cosmos 2082 Rocket 3.9 20:58:13 10° SW 21:01:32 29° WSW 21:01:32 29° WSW
